Wind_Speed
40 31 33 32 30 25 20 20 12 11 9 10 14 10 16 13 12 11 6 12 16 15 10 10 11 12 16 12 17 19 21 23 22 19 18 16 13 14 13 11 8 8 10 14 13 14 10 6 4
38 33 31 32 25 22 21 17 13 13 13 13 7 10 12 11 8 7 6 6 8 12 13 13 14 14 16 16 21 24 26 29 23 22 18 18 15 14 13 13 13 14 15 16 13 10 3 5 8
38 28 37 30 25 23 18 14 16 16 14 10 8 7 7 9 6 12 15 11 10 14 15 18 23 25 22 20 22 27 31 25 21 20 22 19 17 16 14 15 12 15 15 15 9 3 4 11 14
35 26 29 28 20 20 15 14 11 14 14 13 15 8 3 3 5 7 11 15 17 17 22 23 25 25 25 27 32 34 25 21 21 21 19 18 17 18 18 17 15 15 14 9 7 6 9 14 16
27 29 24 17 15 17 14 14 15 14 11 11 10 10 8 2 5 9 10 14 17 20 20 24 25 26 27 32 34 24 20 20 20 17 16 19 22 19 18 17 14 12 9 10 10 13 15 19 16
27 24 17 14 20 16 17 17 15 13 15 11 6 6 8 7 6 9 15 18 20 24 27 27 26 27 29 27 18 16 18 17 16 18 23 24 21 18 17 15 14 12 12 10 16 20 21 21 17
16 27 25 23 18 19 17 16 14 13 11 7 8 8 10 12 12 10 16 20 22 26 26 24 23 23 13 13 15 18 15 17 21 25 20 20 21 20 17 14 11 7 9 18 24 26 27 22 20
35 30 27 24 22 21 21 21 18 16 16 20 22 22 20 19 19 15 10 9 9 8 9 10 8 2 3 10 21 15 16 22 17 17 19 18 16 14 8 3 7 12 20 27 29 30 26 22 20
36 34 34 34 32 31 28 25 24 24 26 28 29 27 24 21 20 21 20 18 12 9 7 6 13 8 6 16 16 13 14 14 16 16 15 12 8 3 8 13 18 24 28 30 32 28 23 21 21
40 39 38 37 33 28 27 26 27 27 29 31 29 27 26 26 27 28 29 27 26 21 19 13 11 9 15 12 8 9 13 14 16 15 13 11 14 17 20 22 26 29 31 32 29 25 22 21 21
27 30 31 30 30 29 30 28 28 27 31 33 32 29 30 24 23 25 31 32 33 30 24 20 15 9 7 9 11 13 15 17 21 23 22 24 29 30 29 28 30 31 31 29 25 21 20 22 22
24 23 26 25 27 26 25 27 26 24 24 24 21 18 19 21 21 23 28 28 31 33 31 26 21 18 17 16 17 17 19 21 25 27 28 28 31 31 30 30 29 30 28 22 18 14 18 21 20
17 17 18 20 21 23 21 19 19 17 14 11 12 13 18 18 23 21 22 24 24 30 30 31 30 27 25 22 20 21 23 24 24 25 25 25 27 28 27 26 26 24 21 17 14 13 15 16 14
12 11 12 14 14 16 14 14 11 9 5 7 10 14 16 17 19 21 22 19 22 25 27 30 31 32 30 28 25 23 24 25 24 24 24 27 27 25 22 21 21 18 16 12 11 12 12 10 9
7 7 7 8 10 10 9 9 8 7 5 4 5 9 13 15 15 18 19 22 21 21 23 26 27 29 31 31 29 25 24 25 24 22 21 21 22 20 18 17 15 14 12 12 10 10 9 7 4
10 8 7 8 9 11 11 10 8 6 5 3 2 3 5 8 9 13 14 15 17 21 21 22 23 24 26 27 27 25 23 23 25 24 19 17 16 15 13 11 9 7 7 6 7 9 9 6 3
5 19 23 16 12 11 12 12 11 10 12 12 10 9 7 7 6 8 7 11 12 14 17 19 19 20 21 22 22 22 19 18 21 22 23 20 15 11 9 7 6 6 5 4 3 3 4 5 4
27 22 21 21 21 18 19 18 15 14 15 15 15 16 15 12 9 9 9 7 8 10 11 13 16 17 16 16 17 18 16 14 11 16 17 19 18 17 15 14 13 10 8 10 10 9 6 5 7
23 23 25 25 24 21 21 19 18 19 19 18 19 21 21 18 17 13 16 15 12 9 8 10 12 15 14 12 12 13 13 11 10 5 11 13 13 13 13 12 8 7 7 9 9 6 7 11 11
38 35 29 25 21 19 23 26 27 27 24 23 22 22 24 24 20 21 20 20 19 16 17 14 12 13 15 13 11 9 8 8 7 5 2 3 6 7 6 6 6 6 3 2 3 6 8 9 4
42 43 40 36 32 20 24 30 31 33 30 28 27 27 27 26 27 25 25 25 25 23 23 22 17 18 16 15 15 12 10 11 11 7 9 7 5 3 3 2 2 3 3 1 1 0 4 4 3
47 45 45 45 41 38 43 33 39 33 40 37 36 35 33 32 29 28 25 25 27 28 25 25 28 25 19 19 19 19 18 13 12 12 15 14 8 10 9 5 4 4 4 5 6 6 6 3 2
49 50 50 50 50 44 43 47 38 40 43 40 41 42 41 41 41 40 37 35 31 33 32 32 31 28 27 27 23 20 23 22 16 16 25 23 20 13 15 15 11 10 7 7 9 10 9 8 8
53 55 54 54 53 53 55 54 54 56 54 51 48 49 48 47 46 45 46 42 39 39 38 37 35 37 34 27 27 24 24 26 24 16 37 28 25 24 21 22 18 17 14 13 13 14 14 13 13
58 58 58 57 57 58 59 58 58 53 58 55 54 54 54 53 52 51 49 49 47 42 43 42 41 38 38 40 35 32 29 28 32 33 31 32 32 30 29 27 24 24 22 21 19 17 18 18 19
63 64 64 64 64 66 63 65 60 57 63 63 62 61 59 59 57 57 54 54 52 52 50 47 45 46 46 46 44 37 36 34 36 39 40 40 38 37 35 34 32 32 26 27 27 26 23 21 21
71 72 72 71 70 71 71 68 69 65 65 66 66 67 67 64 62 60 61 58 59 57 58 55 45 42 45 46 42 39 36 40 41 42 46 48 46 42 42 42 39 36 35 35 30 29 30 31 27
80 78 80 77 77 77 77 79 82 72 73 73 73 73 72 69 68 65 70 67 58 60 62 62 61 59 55 50 35 43 42 40 48 48 50 50 53 52 46 47 48 47 44 39 34 35 32 32 34
81 83 84 86 84 82 81 88 88 77 78 80 78 79 78 77 75 74 73 70 58 59 61 59 58 58 59 57 57 57 55 48 54 61 57 54 54 59 58 52 54 54 53 50 45 44 41 37 34
80 79 81 85 85 88 88 97 88 84 80 82 82 82 81 80 78 74 73 69 67 59 52 54 57 57 59 58 56 60 64 70 68 65 68 66 65 67 65 61 61 61 60 61 59 56 49 48 45
Wind_Direction
137 137 145 148 146 141 139 159 169 110 68 88 120 143 161 158 167 158 176 200 200 192 218 255 271 279 289 292 298 308 317 321 323 323 316 319 321 312 311 309 288 290 290 291 296 312 309 304 163
133 143 133 132 131 140 136 128 121 101 91 105 107 149 166 161 157 198 179 172 194 220 239 253 270 278 276 297 306 315 318 317 313 314 305 306 305 299 295 290 283 276 286 286 287 301 266 156 134
144 140 137 134 129 137 125 110 105 92 74 101 126 150 149 148 160 181 212 227 241 254 271 278 281 283 283 302 308 311 314 308 300 305 302 299 293 291 283 279 293 270 279 275 276 247 148 140 143
136 142 127 135 140 137 118 94 88 105 102 98 91 100 127 144 200 229 238 246 259 267 277 291 293 296 290 297 307 312 310 300 303 298 297 295 288 290 286 284 274 268 264 249 225 181 146 141 146
132 136 137 127 115 130 107 107 119 117 111 130 95 62 66 53 265 267 275 282 278 279 285 300 295 287 293 298 309 310 308 298 297 303 297 304 304 296 285 282 272 256 238 229 211 175 151 148 145
126 142 145 126 122 114 121 125 126 114 107 110 78 37 9 359 331 296 271 272 270 280 285 287 294 292 296 302 311 320 300 308 310 310 311 306 298 295 295 288 273 257 248 226 177 161 154 149 144
133 116 122 128 129 131 122 124 121 116 104 87 64 40 30 359 353 320 298 292 287 283 287 289 292 287 309 313 319 318 311 306 304 310 306 300 297 297 294 288 266 244 179 161 154 152 150 144 139
102 107 114 121 124 119 109 105 101 93 84 79 70 66 59 48 38 23 3 336 325 307 296 289 292 116 297 283 305 302 306 305 312 317 315 309 308 306 295 226 160 149 148 146 144 146 143 140 129
103 107 105 104 104 104 101 97 93 90 90 88 80 73 64 57 51 51 54 56 62 69 65 90 93 83 266 273 287 302 327 347 342 337 330 330 347 61 122 134 137 135 136 136 139 141 136 133 123
105 107 108 108 105 99 97 96 96 96 97 92 82 79 75 64 61 64 67 63 62 69 69 97 120 175 238 295 326 357 13 13 16 22 37 63 90 104 112 119 127 131 131 134 134 130 133 129 118
111 107 106 104 98 103 100 99 99 97 101 95 84 71 61 63 58 62 64 65 62 62 64 69 74 78 48 32 25 36 38 43 46 60 72 90 97 102 106 115 120 126 130 134 130 133 137 134 123
122 114 113 110 104 98 101 111 106 98 97 92 79 59 40 64 51 59 62 63 60 61 60 56 54 55 49 45 48 47 49 57 62 75 78 85 95 101 107 114 123 128 129 133 135 138 142 140 130
136 123 123 120 117 110 104 110 107 101 95 83 66 35 29 60 55 55 60 62 66 59 57 56 51 46 45 45 50 53 52 58 66 72 80 84 93 101 107 117 122 124 127 128 128 132 136 141 135
145 144 137 134 131 132 125 125 121 111 65 39 22 20 35 41 50 55 57 54 60 60 57 55 50 45 41 42 46 54 59 59 63 71 81 91 97 101 107 117 118 114 108 97 104 120 126 130 134
170 165 161 181 163 158 144 136 133 143 165 97 26 18 18 27 33 54 48 51 54 51 51 53 51 48 42 40 41 46 61 68 69 68 75 83 95 104 107 115 116 112 109 106 105 121 128 131 145
207 212 237 211 209 209 200 199 188 193 204 214 222 330 340 1 8 21 41 39 42 44 44 48 46 44 47 41 41 45 58 70 77 77 72 71 73 81 90 103 109 113 116 127 142 147 158 173 208
164 199 216 228 225 228 226 229 235 236 248 247 260 275 282 308 333 344 353 12 30 32 28 31 36 42 38 43 42 41 47 71 79 83 87 88 85 81 83 97 110 120 127 124 119 166 195 196 191
219 236 227 243 244 248 252 250 247 249 257 264 271 278 290 291 287 303 300 322 335 341 9 19 21 18 33 36 36 40 40 42 69 94 96 99 100 98 92 89 92 89 96 103 100 97 100 95 78
209 220 223 233 243 255 261 256 256 256 257 264 274 276 274 278 283 280 288 288 291 297 336 352 360 3 5 17 21 23 36 30 28 55 107 116 117 117 117 111 120 119 109 115 115 92 94 124 119
233 225 220 215 219 234 249 247 254 254 252 257 261 270 273 277 272 273 277 274 278 281 280 296 322 332 339 344 353 353 2 17 12 348 310 139 147 144 142 138 131 107 137 166 152 123 125 130 124
237 246 257 253 239 204 249 245 251 251 246 243 247 253 256 263 268 268 271 275 273 276 279 280 295 309 307 311 319 317 313 328 313 318 293 273 254 244 178 148 147 172 160 116 23 93 170 168 154
242 240 244 250 251 251 239 251 258 273 250 253 255 255 254 252 255 259 263 270 272 272 275 286 294 296 287 297 297 294 292 285 281 292 297 287 262 268 260 250 273 282 278 297 320 326 334 307 250
245 249 249 249 247 244 248 246 218 269 263 265 263 261 261 262 264 265 269 273 270 274 280 283 289 289 290 293 292 281 279 281 285 311 298 276 273 251 254 253 245 250 260 271 275 283 293 300 277
248 248 250 249 249 250 252 252 244 249 262 265 267 268 268 268 267 267 268 270 271 274 278 280 282 290 287 281 285 289 277 276 275 226 251 266 262 263 255 246 239 241 238 247 255 262 267 270 275
248 251 252 253 253 253 253 255 253 259 262 264 266 268 269 270 271 269 268 270 271 272 271 275 276 278 273 279 277 284 273 275 268 262 262 269 265 260 259 259 252 252 245 244 244 255 258 262 266
247 247 249 251 252 254 254 255 259 259 261 262 264 266 268 269 269 271 274 275 276 275 273 269 270 273 272 274 274 280 269 265 254 257 255 259 263 262 258 260 253 255 242 245 252 252 252 254 260
247 249 247 249 251 253 256 254 256 255 258 261 263 264 264 265 270 272 271 271 273 275 276 278 272 261 264 267 278 271 269 269 250 251 252 249 252 256 256 256 254 248 248 246 240 244 247 250 254
244 245 250 251 251 252 253 257 255 254 255 259 260 263 265 265 266 267 268 270 270 272 270 269 271 270 268 266 252 255 251 257 248 243 246 242 245 248 251 252 252 251 248 237 239 239 241 251 252
246 246 247 250 251 253 255 257 257 256 259 261 262 262 263 264 265 266 268 270 268 264 265 265 264 265 266 261 255 255 240 241 247 245 244 244 246 251 248 248 251 249 247 245 240 238 239 236 249
246 247 249 250 253 253 254 257 259 259 258 261 264 265 267 268 270 271 273 271 267 259 250 256 258 260 260 256 251 253 249 241 239 243 241 243 247 251 251 248 248 248 248 244 245 239 238 237 237
Height
10963 10968 10974 10979 10983 10987 10990 10993 10995 10994 10995 10994 10995 10996 10996 10997 10999 11001 11001 11002 11001 11001 11002 11000 11000 10997 10994 10992 10990 10988 10985 10983 10980 10978 10976 10974 10972 10970 10969 10968 10967 10967 10966 10964 10964 10963 10961 10960 10961
10969 10973 10979 10983 10987 10990 10993 10995 10995 10996 10997 10997 10999 10999 10999 11000 11000 11001 11002 11002 11001 11001 10999 10999 10998 10996 10994 10991 10989 10986 10983 10980 10977 10975 10973 10971 10970 10968 10965 10965 10965 10965 10964 10962 10962 10961 10960 10960 10961
10975 10979 10979 10985 10989 10993 10995 10996 10997 10998 10998 11000 11002 11002 11002 11002 11002 11002 11002 11002 11001 11000 10999 10998 10997 10994 10992 10990 10987 10984 10980 10977 10975 10972 10970 10967 10966 10964 10963 10962 10961 10961 10961 10961 10961 10960 10960 10961 10962
10980 10985 10988 10991 10994 10996 10998 10998 11000 11001 11003 11004 11005 11005 11004 11004 11004 11004 11003 11002 11001 10999 10998 10997 10995 10993 10990 10987 10984 10980 10978 10976 10972 10969 10966 10964 10963 10961 10959 10958 10957 10957 10958 10959 10960 10960 10961 10962 10964
10986 10989 10993 10994 10996 10999 11001 11002 11004 11005 11006 11006 11006 11007 11006 11006 11005 11004 11003 11002 10999 10997 10996 10994 10992 10991 10988 10985 10982 10978 10976 10973 10970 10966 10963 10960 10957 10955 10954 10953 10952 10953 10954 10956 10958 10960 10962 10964 10966
10994 10995 10998 10999 11001 11003 11005 11006 11007 11007 11006 11007 11008 11008 11008 11006 11005 11003 11001 10999 10996 10993 10992 10991 10989 10989 10986 10983 10980 10977 10974 10971 10967 10963 10959 10955 10952 10950 10948 10949 10948 10949 10950 10952 10955 10959 10962 10965 10968
11029 11005 11003 11005 11006 11007 11007 11008 11008 11009 11008 11009 11009 11008 11007 11006 11004 11002 10998 10995 10992 10990 10987 10986 10986 10986 10984 10981 10978 10975 10973 10969 10965 10960 10955 10951 10947 10945 10944 10944 10944 10945 10947 10950 10955 10959 10963 10967 10970
11007 11007 11007 11008 11009 11010 11010 11009 11010 11010 11010 11011 11010 11009 11007 11007 11005 11001 10997 10992 10989 10986 10984 10984 10985 10985 10983 10982 10977 10975 10971 10967 10962 10956 10951 10946 10943 10940 10940 10941 10942 10944 10948 10953 10958 10963 10967 10970 10974
11014 11013 11012 11011 11012 11013 11012 11012 11012 11012 11013 11013 11012 11011 11010 11009 11008 11004 10999 10994 10990 10987 10985 10985 10985 10987 10985 10982 10978 10975 10970 10965 10959 10953 10948 10943 10940 10939 10940 10942 10944 10948 10953 10958 10963 10968 10971 10974 10977
11019 11021 11019 11018 11017 11016 11015 11015 11016 11016 11016 11015 11015 11015 11014 11013 11011 11007 11003 10998 10993 10990 10989 10988 10987 10988 10985 10983 10979 10975 10970 10965 10959 10952 10948 10944 10943 10943 10945 10948 10951 10955 10959 10964 10969 10972 10975 10977 10979
11028 11026 11025 11023 11022 11020 11019 11020 11020 11021 11019 11018 11019 11019 11018 11016 11014 11011 11007 11003 10999 10994 10993 10992 10991 10989 10987 10983 10980 10976 10973 10968 10962 10956 10953 10951 10948 10949 10952 10956 10959 10963 10967 10970 10973 10976 10978 10979 10981
11030 11030 11028 11026 11025 11025 11024 11023 11023 11023 11024 11022 11022 11022 11021 11020 11017 11014 11011 11007 11004 11000 10998 10996 10994 10991 10988 10984 10981 10979 10976 10972 10967 10963 10961 10961 10958 10959 10961 10964 10968 10971 10973 10975 10978 10980 10982 10983 10984
11033 11032 11031 11030 11028 11027 11028 11028 11027 11027 11027 11027 11025 11024 11024 11023 11020 11017 11015 11013 11009 11005 11003 11000 10998 10995 10991 10988 10985 10982 10979 10977 10974 10972 10969 10968 10968 10969 10971 10974 10976 10978 10980 10981 10982 10984 10985 10987 10988
11033 11034 11033 11032 11031 11029 11029 11030 11030 11030 11029 11028 11027 11026 11026 11025 11024 11021 11018 11017 11014 11010 11008 11004 11002 10998 10995 10992 10989 10985 10983 10981 10981 10980 10978 10977 10977 10978 10981 10982 10983 10984 10985 10986 10986 10986 10987 10989 10990
11035 11036 11035 11034 11033 11032 11031 11031 11031 11031 11031 11030 11029 11028 11028 11028 11027 11025 11022 11020 11018 11016 11012 11008 11006 11003 11000 10997 10994 10991 10987 10985 10985 10986 10986 10986 10985 10985 10986 10987 10988 10988 10989 10989 10990 10990 10990 10990 10991
11036 11038 11039 11034 11033 11032 11032 11031 11031 11031 11032 11031 11031 11030 11030 11030 11029 11027 11025 11023 11021 11019 11016 11012 11010 11007 11003 11001 10999 10996 10994 10992 10989 10989 10990 10991 10991 10991 10991 10991 10992 10992 10992 10992 10992 10992 10992 10992 10992
11036 11029 11038 11034 11032 11031 11031 11031 11031 11030 11031 11031 11031 11030 11031 11031 11030 11028 11027 11026 11023 11020 11019 11016 11013 11010 11008 11005 11003 11002 11000 10998 10996 10994 10993 10993 10994 10995 10995 10995 10994 10994 10993 10993 10993 10993 10992 10992 10991
11032 11027 11030 11031 11030 11030 11031 11030 11030 11029 11029 11029 11029 11029 11029 11029 11029 11028 11027 11026 11023 11022 11019 11017 11015 11014 11012 11009 11007 11006 11005 11004 11002 10998 10997 10996 10996 10996 10997 10997 10997 10997 10996 10995 10994 10994 10993 10993 10993
11026 11025 11026 11027 11027 11028 11029 11029 11027 11026 11027 11027 11028 11027 11026 11026 11026 11026 11025 11025 11024 11022 11020 11018 11017 11015 11015 11013 11011 11009 11008 11008 11006 11005 11001 10999 10998 10998 10998 10997 10997 10998 10997 10996 10996 10995 10994 10994 10994
11015 11018 11021 11022 11024 11029 11027 11023 11023 11022 11022 11022 11023 11024 11024 11023 11023 11022 11022 11022 11022 11021 11020 11018 11017 11016 11015 11015 11013 11011 11010 11009 11009 11009 11007 11005 11002 11000 10999 10999 10999 10999 10998 10998 10997 10996 10996 10996 10996
11008 11009 11010 11015 11019 11033 11017 11015 11020 11017 11015 11014 11016 11018 11019 11020 11019 11018 11019 11018 11018 11018 11017 11017 11016 11015 11015 11015 11014 11012 11011 11010 11009 11010 11009 11007 11006 11005 11002 11001 11000 11000 10999 10999 10998 10998 10997 10997 10996
11000 11003 11004 11005 11010 11014 11009 11017 11020 11007 11005 11008 11009 11011 11013 11014 11014 11014 11014 11014 11014 11013 11013 11013 11013 11013 11013 11012 11012 11011 11009 11009 11010 11010 11009 11008 11006 11005 11004 11002 11002 11001 11001 11001 11000 10999 10998 10998 10997
10993 10991 10995 10996 11001 11003 11003 11006 11021 10992 10998 10999 11000 11003 11005 11007 11007 11006 11008 11008 11008 11008 11008 11009 11008 11007 11008 11008 11007 11008 11006 11008 11010 11014 11012 11008 11005 11001 11001 11000 10999 10999 10999 10999 10999 10999 10998 10998 10997
10982 10980 10982 10985 10986 10989 10988 10990 10995 10994 10990 10990 10991 10992 10995 10996 10998 10999 10999 11001 11001 11002 11002 11002 11002 11003 11002 11001 11003 11004 11005 11005 11007 11016 11010 11005 11001 10999 10998 10996 10995 10995 10996 10996 10996 10996 10996 10995 10995
10966 10968 10970 10972 10973 10973 10974 10977 10981 10985 10979 10982 10982 10982 10982 10984 10985 10987 10989 10989 10991 10993 10992 10993 10995 10997 10995 10995 10995 10997 10997 10998 11000 11001 11001 10996 10995 10995 10994 10993 10992 10992 10991 10992 10991 10992 10992 10992 10991
10951 10954 10956 10957 10959 10956 10964 10959 10968 10973 10964 10968 10971 10971 10972 10971 10974 10975 10978 10978 10979 10979 10982 10984 10986 10985 10986 10985 10985 10988 10989 10988 10988 10988 10988 10987 10986 10987 10987 10988 10988 10988 10987 10987 10987 10987 10987 10987 10987
10934 10935 10938 10940 10945 10943 10944 10948 10947 10955 10953 10954 10954 10954 10955 10962 10966 10965 10964 10966 10965 10969 10968 10969 10972 10972 10972 10973 10976 10977 10976 10975 10976 10976 10975 10974 10977 10977 10977 10979 10980 10981 10981 10980 10979 10980 10980 10981 10981
10916 10920 10918 10925 10926 10928 10927 10925 10918 10938 10939 10938 10938 10938 10941 10947 10950 10952 10948 10952 10955 10953 10953 10953 10957 10957 10957 10959 10963 10962 10962 10961 10962 10960 10960 10960 10963 10965 10966 10967 10969 10971 10972 10971 10972 10971 10973 10973 10975
10898 10903 10905 10903 10907 10911 10913 10898 10902 10922 10924 10920 10924 10921 10924 10927 10932 10934 10935 10939 10941 10940 10937 10937 10938 10938 10939 10941 10944 10943 10945 10945 10946 10946 10948 10946 10949 10949 10953 10954 10956 10958 10959 10961 10961 10963 10963 10964 10966
10883 10886 10887 10884 10891 10891 10893 10874 10893 10900 10908 10905 10904 10905 10906 10908 10913 10918 10918 10920 10922 10923 10920 10920 10920 10920 10921 10923 10924 10925 10925 10926 10925 10927 10929 10930 10933 10932 10936 10938 10941 10943 10944 10945 10948 10950 10950 10952 10954